Regional Weather Roundup
Issued by NWS

Home | Current Version | Previous Version | Graphics & Text | Print | Product List | Glossary On
Versions: 1 2 3 4 5 6 7 8 9 10 11 12 13 14 15 16 17 18 19 20 21 22 23 24 25 26 27 28 29 30 31 32 33 34 35 36 37 38 39 40 41 42 43 44 45 46 47 48 49 50
000
ASUS45 KCYS 221710
RWRWY

WYOMING REGIONAL WEATHER ROUNDUP
NATIONAL WEATHER SERVICE CHEYENNE WY
1000 AM MST WED NOV 22 2017

NOTE:  "FAIR" INDICATES FEW OR NO CLOUDS BELOW 12,000 FEET
WITH NO SIGNIFICANT WEATHER AND/OR OBSTRUCTIONS TO VISIBILITY.

WYZ001-221800-
YELLOWSTONE NATIONAL PARK

CITY           SKY/WX    TMP DP  RH WIND       PRES   REMARKS
LK YELLOWSTONE   N/A     39  37  92 W8G20     30.40R WCI  33
W YELLOWSTONE  NOT AVBL

$$
WYZ002>013-054>058-071-098>099-221800-
NORTHERN WYOMING

CITY           SKY/WX    TMP DP  RH WIND       PRES   REMARKS
JACKSON        CLOUDY    47  41  80 NW7       30.39R
CODY           FAIR      56  38  50 W14G21    30.22S
GREYBULL       PTSUNNY   39  32  76 S3        30.22S
WORLAND        FAIR      39  34  82 CALM      30.22S
SHERIDAN       CLOUDY    63  43  48 W12       30.11R
BUFFALO        FAIR      61  31  32 CALM      30.15R
GILLETTE       FAIR      63  35  35 SW13      30.09S
HULETT         CLOUDY    54  32  43 SW9       30.10R
NEWCASTLE      FAIR      45  28  53 CALM      30.14R

$$
WYZ014>020-022>026-101>103-221800-
CENTRAL WYOMING

CITY           SKY/WX    TMP DP  RH WIND       PRES   REMARKS
BIG PINEY      CLOUDY    37  36  96 NE3       30.43S
PINEDALE       CLOUDY    34  34 100 CALM      30.45R FOG
DUBOIS         CLOUDY    46  36  66 NW12      30.33S
LANDER         FAIR      45  34  65 W3        30.27R
RIVERTON       FAIR      46  34  62 W9        30.27S
CASPER         FAIR      54  37  52 SW25G32   30.25R
DOUGLAS        FAIR      61  39  44 W24G38    30.19R

$$
WYZ021-027>030-104>119-221800-
SOUTHERN WYOMING

CITY           SKY/WX    TMP DP  RH WIND       PRES   REMARKS
EVANSTON       FAIR      47  39  74 SW10      30.49R
KEMMERER       FAIR      43  36  75 SW5       30.48S
FORT BRIDGER   PTSUNNY   49  41  73 SW9       30.51S
ROCK SPRINGS   FAIR      46  37  71 SW17      30.46R
DIXON          CLOUDY    43  35  74 NE3       30.49S
RAWLINS        LGT RAIN  48  39  71 W28G37    30.36S
SARATOGA       FAIR      48  37  66 W21       30.42S
LARAMIE        FAIR      49  38  65 W22G30    30.36R
CHEYENNE       FAIR      56  38  50 W23G30    30.26S
TORRINGTON     FAIR      60  41  49 W13G18    30.16R
PINE BLUFFS    FAIR      55  36  47 W20G26    30.22S

$$



USA.gov is the U.S. government's official web portal to all federal, state and local government web resources and services.